Temp
-8 -8 -8 -8 -8 -8 -8 -8 -8 -8 -8 -8 -8 -8 -8 -8 -8 -8 -8 -8 -8 -8 -8 -8 -8 -9 -9 -9 -9 -9 -9 -9 -9 -9 -9 -9 -9 -9 -9 -9 -9 -9 -8 -7 -8 -8 -8 -8 -8 -9 -9 -9 -9 -9 -10 -10 -10 -10 -10 -10 -10 -10 -10
-8 -8 -8 -8 -8 -8 -8 -8 -8 -8 -8 -8 -8 -8 -8 -8 -8 -8 -8 -8 -8 -9 -9 -9 -9 -9 -9 -9 -9 -9 -9 -9 -9 -9 -9 -9 -9 -9 -9 -9 -9 -9 -9 -8 -8 -8 -8 -8 -9 -9 -9 -9 -9 -10 -10 -10 -10 -10 -10 -10 -10 -10 -10
-8 -8 -8 -8 -8 -8 -8 -8 -8 -9 -8 -8 -9 -9 -9 -9 -9 -9 -9 -9 -9 -9 -9 -9 -9 -9 -9 -9 -9 -9 -9 -9 -9 -10 -9 -9 -10 -10 -10 -10 -10 -10 -10 -9 -8 -9 -9 -9 -9 -9 -9 -9 -9 -10 -10 -10 -10 -10 -10 -10 -10 -10 -10
-9 -9 -9 -9 -9 -9 -9 -9 -9 -9 -9 -9 -9 -9 -9 -9 -9 -9 -9 -9 -9 -9 -9 -9 -9 -9 -9 -10 -9 -9 -9 -10 -10 -10 -10 -10 -10 -10 -10 -10 -10 -10 -10 -10 -9 -9 -9 -9 -9 -9 -9 -9 -9 -9 -10 -10 -10 -10 -10 -10 -10 -10 -10
-9 -9 -9 -9 -9 -9 -9 -9 -9 -9 -9 -9 -9 -9 -9 -9 -9 -9 -9 -9 -9 -9 -9 -9 -9 -9 -9 -9 -9 -9 -10 -10 -10 -10 -10 -10 -10 -10 -10 -10 -10 -10 -10 -10 -9 -9 -9 -9 -9 -9 -9 -9 -9 -9 -9 -10 -10 -10 -10 -10 -10 -10 -10
-9 -9 -9 -9 -9 -9 -9 -9 -9 -9 -9 -9 -9 -9 -9 -9 -9 -9 -9 -9 -9 -9 -9 -9 -9 -9 -9 -10 -9 -10 -10 -10 -10 -10 -10 -10 -10 -10 -10 -10 -10 -10 -10 -10 -10 -10 -10 -10 -10 -10 -9 -9 -10 -10 -10 -10 -10 -10 -10 -10 -10 -10 -10
-9 -9 -9 -9 -9 -9 -9 -9 -9 -9 -9 -9 -9 -9 -9 -9 -9 -9 -9 -9 -9 -9 -9 -9 -9 -9 -10 -10 -10 -10 -10 -10 -10 -10 -10 -10 -11 -11 -11 -11 -11 -11 -11 -11 -11 -10 -10 -10 -10 -10 -10 -10 -10 -10 -10 -10 -10 -10 -10 -10 -10 -10 -10
-10 -10 -10 -10 -10 -10 -10 -9 -9 -9 -9 -10 -10 -10 -10 -10 -10 -9 -9 -9 -9 -9 -9 -9 -10 -10 -10 -10 -10 -10 -10 -10 -10 -11 -11 -11 -11 -11 -11 -11 -11 -11 -11 -11 -11 -11 -11 -11 -11 -10 -10 -10 -10 -10 -10 -10 -10 -10 -10 -10 -10 -10 -11
-10 -10 -10 -10 -10 -10 -10 -10 -10 -10 -10 -10 -10 -10 -10 -10 -10 -10 -10 -10 -10 -10 -10 -10 -10 -10 -10 -10 -10 -10 -11 -11 -11 -11 -11 -11 -11 -12 -12 -12 -12 -12 -12 -12 -11 -11 -11 -11 -11 -11 -11 -11 -11 -11 -11 -11 -11 -11 -11 -11 -11 -11 -11
-10 -10 -10 -10 -10 -10 -10 -10 -10 -10 -10 -10 -10 -10 -10 -10 -10 -10 -10 -10 -10 -10 -10 -10 -10 -11 -11 -11 -11 -11 -11 -11 -12 -12 -12 -12 -12 -12 -12 -12 -12 -12 -12 -12 -12 -12 -12 -12 -11 -11 -11 -11 -11 -11 -11 -11 -11 -11 -11 -11 -11 -11 -11
-11 -11 -11 -11 -11 -11 -11 -11 -11 -11 -11 -11 -11 -11 -10 -10 -10 -10 -10 -11 -11 -11 -11 -11 -11 -11 -12 -12 -12 -12 -12 -12 -12 -12 -12 -13 -13 -13 -13 -13 -13 -13 -13 -13 -13 -13 -12 -12 -12 -12 -12 -12 -12 -11 -11 -11 -11 -11 -11 -11 -11 -11 -11
-11 -11 -11 -11 -11 -11 -11 -11 -11 -11 -11 -12 -12 -12 -12 -11 -11 -11 -12 -12 -12 -12 -12 -12 -12 -12 -12 -12 -12 -13 -13 -13 -13 -13 -13 -13 -13 -13 -14 -14 -14 -14 -14 -14 -14 -13 -13 -13 -13 -12 -13 -13 -12 -12 -12 -12 -12 -12 -12 -12 -12 -11 -11
-12 -11 -11 -11 -12 -12 -12 -12 -12 -12 -12 -13 -13 -13 -13 -13 -13 -13 -13 -13 -13 -13 -13 -13 -13 -13 -13 -13 -13 -13 -13 -13 -13 -13 -14 -14 -14 -14 -14 -14 -15 -15 -15 -15 -15 -14 -14 -13 -13 -13 -13 -14 -14 -14 -13 -13 -13 -12 -12 -12 -12 -12 -12
-12 -12 -12 -12 -12 -13 -13 -13 -13 -13 -14 -14 -14 -14 -14 -14 -14 -14 -14 -14 -14 -14 -14 -14 -14 -14 -14 -14 -14 -14 -14 -14 -14 -14 -14 -14 -14 -14 -15 -15 -15 -15 -16 -16 -16 -15 -14 -14 -14 -15 -14 -15 -15 -15 -15 -14 -14 -13 -13 -13 -13 -12 -12
-13 -13 -13 -13 -14 -14 -14 -14 -14 -14 -15 -15 -15 -15 -15 -15 -15 -15 -15 -15 -15 -15 -15 -15 -15 -15 -15 -15 -15 -15 -15 -15 -15 -15 -15 -15 -15 -15 -15 -15 -15 -16 -17 -17 -17 -16 -16 -15 -15 -16 -16 -16 -16 -16 -16 -16 -15 -15 -14 -14 -14 -13 -13
-14 -14 -14 -14 -15 -15 -15 -15 -16 -16 -16 -16 -16 -16 -16 -16 -16 -16 -16 -16 -16 -16 -16 -16 -16 -16 -16 -16 -16 -16 -16 -16 -16 -16 -15 -15 -15 -15 -15 -15 -16 -16 -17 -17 -17 -17 -17 -16 -16 -17 -17 -17 -17 -17 -17 -17 -17 -16 -16 -15 -15 -14 -14
-14 -15 -15 -15 -15 -15 -16 -16 -16 -17 -17 -17 -17 -17 -17 -17 -17 -17 -17 -17 -17 -17 -17 -17 -17 -17 -17 -17 -17 -17 -17 -17 -17 -17 -17 -16 -16 -16 -16 -16 -16 -16 -17 -17 -17 -18 -18 -17 -17 -18 -18 -18 -18 -18 -18 -18 -18 -17 -17 -17 -16 -16 -15
-15 -16 -16 -16 -16 -16 -17 -17 -17 -17 -17 -17 -17 -17 -17 -17 -17 -17 -17 -18 -18 -18 -18 -18 -18 -18 -18 -18 -18 -18 -18 -18 -18 -18 -18 -18 -17 -17 -17 -17 -17 -17 -17 -17 -18 -18 -18 -18 -18 -18 -18 -18 -18 -19 -19 -19 -18 -18 -18 -18 -17 -17 -17
-16 -17 -17 -17 -17 -17 -17 -17 -18 -18 -18 -18 -18 -18 -18 -18 -18 -18 -18 -18 -18 -18 -19 -19 -19 -19 -19 -19 -19 -19 -19 -19 -19 -19 -19 -19 -19 -18 -18 -18 -18 -18 -18 -18 -18 -18 -18 -18 -18 -18 -19 -19 -19 -19 -20 -20 -19 -19 -20 -19 -19 -18 -18
-17 -17 -18 -18 -18 -18 -18 -18 -18 -18 -18 -19 -19 -19 -19 -19 -19 -19 -19 -19 -19 -19 -19 -19 -20 -20 -20 -20 -20 -20 -20 -20 -20 -20 -20 -20 -20 -20 -19 -20 -20 -20 -19 -19 -19 -19 -19 -19 -19 -19 -19 -19 -19 -20 -21 -21 -20 -20 -20 -20 -20 -20 -19
-18 -18 -18 -18 -19 -19 -19 -19 -19 -19 -19 -19 -20 -20 -19 -19 -19 -19 -19 -19 -19 -19 -20 -20 -20 -20 -20 -21 -21 -21 -21 -21 -21 -22 -21 -21 -21 -21 -21 -21 -21 -21 -20 -20 -20 -20 -20 -19 -19 -19 -19 -20 -20 -20 -21 -21 -21 -21 -21 -21 -21 -21 -20
-19 -18 -19 -19 -19 -19 -20 -20 -20 -20 -20 -20 -20 -20 -20 -20 -20 -20 -20 -20 -20 -20 -20 -20 -21 -21 -21 -21 -22 -22 -22 -22 -22 -22 -22 -22 -22 -22 -22 -22 -22 -22 -21 -21 -21 -21 -21 -20 -20 -20 -20 -20 -20 -21 -21 -22 -22 -22 -22 -22 -22 -21 -21
-19 -19 -19 -20 -20 -20 -20 -20 -20 -20 -21 -21 -21 -21 -21 -21 -21 -21 -21 -21 -21 -21 -21 -21 -21 -22 -22 -22 -22 -22 -23 -23 -23 -23 -23 -23 -23 -23 -23 -23 -23 -22 -22 -22 -22 -22 -22 -21 -21 -21 -21 -21 -21 -21 -22 -23 -23 -23 -23 -23 -22 -22 -22
-20 -20 -20 -20 -21 -21 -21 -21 -21 -21 -21 -21 -21 -21 -22 -22 -22 -22 -22 -22 -22 -22 -22 -22 -22 -23 -23 -23 -23 -23 -23 -23 -23 -23 -23 -23 -23 -23 -23 -23 -23 -23 -23 -23 -23 -23 -22 -22 -22 -22 -22 -22 -22 -23 -23 -24 -24 -24 -24 -23 -23 -23 -22
-21 -21 -21 -21 -21 -21 -21 -22 -22 -22 -22 -22 -22 -22 -22 -23 -23 -23 -23 -23 -23 -23 -23 -23 -23 -23 -23 -24 -24 -24 -24 -23 -23 -23 -23 -23 -23 -24 -24 -24 -24 -24 -24 -24 -23 -23 -23 -23 -23 -23 -23 -23 -24 -24 -24 -24 -24 -24 -24 -24 -24 -23 -23
-21 -22 -22 -22 -22 -22 -22 -22 -22 -22 -22 -23 -23 -23 -23 -23 -23 -23 -24 -24 -24 -24 -24 -24 -24 -24 -24 -24 -24 -24 -24 -24 -24 -24 -24 -24 -24 -24 -24 -24 -24 -24 -24 -24 -24 -24 -23 -23 -23 -24 -24 -24 -25 -25 -25 -25 -25 -25 -25 -25 -24 -24 -23
-22 -22 -22 -22 -22 -22 -22 -22 -22 -23 -23 -23 -23 -23 -23 -24 -24 -24 -24 -24 -24 -24 -24 -24 -24 -24 -24 -24 -24 -24 -24 -24 -24 -24 -24 -25 -25 -25 -25 -25 -25 -25 -24 -24 -24 -24 -24 -24 -24 -24 -25 -25 -25 -25 -25 -26 -26 -25 -25 -25 -25 -25 -24
-22 -22 -23 -22 -22 -22 -22 -22 -23 -23 -23 -23 -23 -24 -24 -24 -24 -24 -24 -24 -24 -24 -24 -24 -24 -24 -24 -24 -24 -25 -25 -25 -25 -25 -25 -25 -25 -25 -25 -25 -25 -25 -25 -25 -25 -25 -25 -25 -25 -25 -25 -26 -26 -26 -26 -27 -27 -26 -26 -26 -26 -26 -25
-23 -23 -23 -23 -23 -23 -23 -23 -23 -23 -24 -23 -24 -24 -24 -24 -24 -24 -24 -24 -24 -24 -24 -24 -24 -24 -24 -24 -25 -25 -25 -25 -25 -25 -25 -25 -25 -25 -25 -26 -26 -26 -26 -25 -26 -26 -26 -26 -26 -26 -26 -27 -27 -27 -28 -28 -28 -27 -27 -27 -27 -26 -26
-24 -24 -24 -23 -23 -23 -23 -23 -23 -24 -24 -24 -24 -24 -24 -24 -24 -24 -24 -24 -24 -24 -24 -24 -24 -24 -24 -24 -25 -25 -25 -25 -25 -25 -25 -25 -26 -26 -26 -26 -26 -26 -26 -26 -26 -26 -26 -27 -27 -27 -27 -28 -28 -28 -29 -29 -29 -28 -28 -28 -27 -27 -26
-24 -24 -24 -24 -24 -24 -24 -24 -24 -24 -24 -24 -24 -24 -24 -24 -24 -24 -24 -24 -24 -24 -24 -24 -24 -24 -24 -25 -25 -25 -25 -25 -25 -25 -25 -26 -26 -26 -26 -27 -27 -27 -27 -27 -27 -27 -27 -28 -27 -27 -28 -28 -29 -29 -29 -29 -29 -29 -29 -28 -28 -28 -27
-25 -25 -25 -24 -24 -24 -24 -24 -24 -24 -24 -24 -24 -24 -24 -24 -24 -24 -24 -24 -24 -24 -24 -24 -25 -25 -25 -25 -25 -25 -26 -26 -26 -26 -26 -26 -26 -26 -27 -27 -27 -27 -27 -27 -27 -27 -28 -28 -28 -28 -28 -29 -29 -29 -30 -30 -30 -29 -29 -29 -29 -28 -28
-25 -25 -25 -25 -25 -25 -25 -25 -24 -24 -24 -25 -25 -25 -25 -25 -24 -24 -25 -25 -25 -24 -25 -25 -25 -25 -25 -25 -26 -26 -26 -26 -26 -26 -26 -26 -26 -26 -27 -27 -28 -28 -28 -28 -28 -28 -28 -29 -29 -29 -28 -29 -29 -29 -30 -30 -30 -30 -30 -29 -29 -29 -29
-25 -25 -25 -25 -25 -25 -25 -25 -25 -25 -25 -25 -25 -25 -25 -25 -25 -25 -25 -25 -25 -25 -25 -25 -25 -25 -26 -26 -26 -26 -26 -26 -26 -26 -26 -26 -26 -27 -27 -27 -28 -28 -28 -28 -28 -28 -28 -29 -29 -29 -29 -29 -29 -29 -30 -30 -30 -30 -30 -30 -29 -29 -29
-26 -26 -26 -26 -26 -25 -25 -25 -25 -25 -25 -25 -25 -25 -25 -25 -25 -25 -25 -25 -25 -25 -25 -25 -25 -26 -26 -26 -26 -26 -26 -26 -26 -26 -26 -26 -27 -27 -27 -27 -28 -28 -28 -28 -28 -29 -29 -29 -29 -30 -30 -30 -30 -30 -30 -30 -30 -30 -30 -29 -29 -29 -29
-25 -26 -26 -26 -26 -25 -25 -25 -25 -25 -25 -25 -25 -25 -25 -25 -25 -25 -25 -25 -26 -26 -26 -26 -26 -26 -26 -26 -26 -26 -26 -26 -26 -26 -27 -27 -27 -27 -27 -28 -28 -28 -28 -28 -28 -29 -29 -29 -29 -29 -30 -30 -30 -30 -30 -30 -30 -30 -29 -29 -29 -29 -29
Height
2953 2952 2952 2951 2951 2950 2950 2949 2949 2948 2947 2947 2947 2947 2947 2946 2946 2945 2945 2945 2944 2944 2944 2944 2944 2944 2944 2944 2944 2944 2944 2944 2944 2943 2943 2943 2942 2942 2941 2940 2939 2938 2939 2941 2941 2940 2940 2940 2941 2942 2944 2945 2947 2949 2951 2952 2952 2953 2953 2954 2954 2955 2955
2948 2948 2948 2947 2947 2946 2946 2945 2945 2944 2943 2943 2942 2942 2942 2942 2941 2941 2940 2940 2939 2939 2939 2938 2938 2938 2938 2937 2937 2938 2937 2937 2937 2936 2936 2935 2934 2934 2934 2932 2932 2932 2932 2934 2935 2934 2933 2933 2933 2933 2935 2937 2938 2941 2942 2943 2944 2945 2945 2946 2947 2947 2948
2944 2943 2943 2942 2941 2941 2941 2940 2940 2939 2938 2938 2938 2937 2937 2937 2936 2936 2935 2935 2934 2934 2933 2933 2932 2932 2932 2931 2931 2931 2930 2929 2929 2928 2928 2928 2927 2927 2926 2925 2925 2925 2924 2925 2928 2928 2926 2926 2926 2926 2928 2928 2930 2932 2933 2934 2936 2937 2938 2939 2939 2939 2941
2939 2938 2937 2937 2936 2936 2935 2935 2934 2934 2933 2933 2932 2932 2932 2931 2931 2930 2930 2930 2929 2928 2927 2927 2926 2926 2925 2924 2924 2924 2923 2922 2921 2921 2921 2920 2920 2919 2919 2918 2917 2917 2917 2917 2919 2920 2920 2918 2919 2919 2920 2920 2921 2922 2924 2925 2927 2928 2929 2930 2931 2931 2933
2933 2933 2932 2931 2931 2930 2930 2929 2928 2928 2927 2927 2926 2926 2925 2925 2924 2924 2923 2923 2922 2922 2921 2920 2920 2919 2918 2917 2917 2916 2915 2915 2914 2914 2913 2913 2912 2911 2911 2910 2909 2909 2910 2909 2910 2913 2913 2911 2911 2912 2913 2913 2913 2914 2915 2916 2918 2919 2920 2921 2923 2924 2925
2928 2927 2926 2926 2925 2924 2924 2923 2922 2922 2921 2920 2920 2919 2919 2918 2917 2917 2916 2916 2915 2914 2913 2913 2912 2912 2911 2910 2909 2909 2908 2907 2907 2906 2906 2905 2905 2904 2903 2902 2902 2902 2901 2901 2902 2905 2905 2904 2904 2905 2905 2906 2905 2905 2906 2907 2908 2910 2911 2913 2914 2916 2917
2922 2921 2920 2920 2919 2918 2917 2916 2915 2914 2914 2913 2912 2912 2911 2911 2910 2909 2909 2908 2907 2906 2905 2905 2904 2903 2902 2902 2901 2900 2899 2899 2898 2897 2897 2897 2896 2895 2894 2894 2894 2893 2892 2893 2894 2895 2897 2896 2896 2897 2898 2899 2898 2897 2897 2898 2898 2901 2903 2905 2906 2907 2909
2916 2915 2914 2913 2912 2911 2910 2909 2908 2907 2906 2905 2904 2904 2903 2902 2902 2901 2901 2900 2899 2898 2897 2896 2896 2894 2894 2893 2892 2891 2890 2889 2889 2888 2888 2888 2887 2886 2885 2885 2885 2884 2883 2884 2884 2885 2888 2887 2887 2888 2890 2890 2889 2889 2890 2891 2890 2892 2894 2895 2896 2898 2899
2909 2908 2907 2906 2905 2905 2903 2902 2901 2900 2899 2898 2897 2896 2895 2894 2893 2892 2892 2891 2890 2889 2888 2887 2886 2885 2884 2883 2882 2881 2880 2879 2879 2877 2877 2878 2876 2875 2875 2875 2874 2874 2874 2874 2874 2875 2878 2877 2877 2880 2881 2880 2881 2882 2883 2883 2881 2882 2884 2884 2885 2888 2890
2902 2901 2900 2899 2898 2897 2895 2894 2893 2892 2891 2889 2888 2887 2886 2885 2884 2883 2882 2881 2880 2879 2878 2877 2876 2875 2874 2873 2872 2871 2870 2869 2868 2867 2867 2867 2866 2865 2865 2864 2864 2864 2864 2863 2863 2865 2867 2865 2867 2871 2871 2870 2872 2873 2873 2873 2872 2873 2875 2874 2875 2878 2880
2895 2894 2893 2892 2890 2889 2887 2886 2884 2883 2881 2880 2878 2877 2876 2876 2875 2874 2873 2872 2870 2869 2868 2867 2866 2865 2864 2863 2861 2860 2859 2859 2858 2857 2856 2856 2855 2854 2854 2854 2853 2853 2853 2853 2852 2854 2855 2854 2856 2861 2861 2859 2862 2862 2862 2863 2863 2863 2864 2864 2864 2868 2870
2887 2886 2885 2883 2882 2880 2879 2877 2876 2874 2872 2871 2869 2868 2867 2866 2865 2864 2863 2862 2861 2860 2858 2857 2856 2855 2854 2853 2852 2851 2849 2848 2848 2847 2846 2845 2845 2844 2844 2843 2842 2842 2842 2841 2841 2842 2843 2844 2845 2848 2849 2849 2850 2851 2851 2852 2852 2852 2853 2853 2854 2857 2860
2878 2877 2875 2874 2872 2871 2869 2867 2866 2865 2863 2861 2860 2859 2857 2856 2856 2855 2854 2853 2851 2850 2849 2847 2846 2845 2844 2843 2842 2841 2840 2839 2838 2837 2836 2835 2835 2834 2834 2833 2832 2832 2831 2830 2829 2829 2831 2834 2835 2835 2837 2839 2839 2839 2840 2841 2841 2842 2843 2842 2844 2848 2850
2869 2867 2865 2864 2862 2861 2859 2857 2856 2855 2853 2852 2851 2849 2848 2847 2847 2846 2844 2843 2842 2841 2839 2838 2837 2836 2835 2834 2832 2831 2830 2829 2828 2828 2827 2826 2825 2825 2825 2824 2823 2823 2821 2820 2819 2817 2819 2824 2824 2822 2826 2828 2827 2827 2829 2829 2830 2832 2832 2832 2835 2837 2837
2861 2859 2857 2855 2853 2852 2850 2848 2846 2845 2844 2843 2841 2840 2839 2839 2838 2837 2836 2834 2833 2832 2830 2829 2828 2826 2825 2824 2823 2822 2820 2819 2818 2817 2817 2816 2816 2815 2815 2815 2814 2813 2812 2811 2810 2809 2809 2812 2813 2812 2813 2816 2815 2815 2817 2818 2819 2821 2821 2822 2823 2824 2825
2852 2851 2849 2847 2845 2843 2842 2840 2838 2837 2835 2834 2832 2831 2830 2830 2829 2828 2827 2826 2824 2822 2821 2820 2818 2817 2816 2815 2814 2812 2811 2809 2808 2807 2807 2806 2805 2805 2805 2805 2805 2804 2803 2802 2802 2801 2801 2802 2803 2802 2802 2804 2804 2804 2806 2807 2807 2809 2810 2810 2810 2812 2815
2845 2843 2841 2839 2837 2835 2834 2833 2830 2828 2827 2826 2824 2822 2821 2821 2820 2819 2818 2817 2815 2814 2812 2811 2809 2808 2806 2805 2804 2803 2801 2800 2798 2797 2797 2795 2795 2795 2794 2795 2795 2793 2793 2794 2793 2793 2793 2794 2794 2793 2793 2794 2793 2793 2795 2794 2794 2797 2799 2798 2799 2802 2805
2838 2836 2833 2831 2829 2827 2826 2825 2823 2821 2819 2818 2816 2814 2812 2812 2811 2810 2809 2808 2807 2806 2804 2803 2801 2799 2797 2796 2795 2794 2792 2791 2789 2787 2787 2785 2784 2784 2784 2785 2784 2783 2783 2784 2783 2783 2784 2784 2785 2784 2784 2784 2784 2784 2783 2782 2783 2788 2788 2787 2789 2792 2794
2829 2828 2826 2824 2822 2820 2818 2816 2814 2812 2811 2809 2808 2805 2804 2802 2801 2801 2800 2799 2798 2797 2796 2794 2792 2790 2789 2787 2786 2785 2783 2782 2780 2778 2778 2776 2775 2774 2775 2775 2773 2772 2773 2773 2772 2773 2774 2774 2775 2775 2774 2774 2774 2775 2773 2771 2773 2777 2777 2776 2780 2783 2783
2820 2819 2818 2816 2814 2812 2810 2808 2806 2805 2802 2801 2799 2797 2795 2794 2792 2791 2790 2789 2789 2788 2787 2786 2784 2782 2780 2778 2777 2776 2774 2773 2771 2769 2769 2767 2765 2764 2765 2764 2762 2762 2762 2761 2761 2762 2763 2764 2765 2765 2764 2764 2764 2764 2765 2764 2764 2765 2766 2767 2770 2773 2773
2813 2811 2810 2809 2807 2805 2803 2801 2799 2797 2795 2793 2791 2789 2787 2786 2784 2783 2781 2781 2780 2779 2779 2778 2776 2775 2773 2771 2770 2768 2767 2765 2763 2761 2760 2759 2758 2756 2756 2755 2753 2753 2753 2751 2751 2752 2752 2753 2754 2754 2755 2756 2755 2755 2756 2756 2756 2756 2756 2758 2760 2763 2763
2806 2804 2803 2801 2799 2798 2796 2794 2792 2790 2789 2787 2785 2783 2781 2779 2777 2775 2773 2772 2772 2772 2770 2769 2768 2767 2766 2764 2763 2762 2760 2758 2757 2755 2753 2753 2751 2750 2749 2747 2745 2744 2744 2743 2742 2743 2743 2743 2744 2744 2746 2746 2746 2746 2747 2747 2748 2748 2749 2749 2750 2752 2754
2798 2797 2796 2795 2793 2792 2790 2788 2786 2784 2782 2780 2778 2776 2774 2772 2770 2768 2766 2765 2764 2764 2762 2761 2760 2759 2758 2757 2756 2755 2753 2752 2750 2748 2747 2746 2744 2743 2742 2740 2738 2737 2736 2735 2734 2734 2733 2734 2734 2735 2736 2737 2737 2738 2739 2739 2739 2740 2740 2740 2740 2742 2743
2792 2790 2789 2788 2787 2786 2784 2782 2780 2778 2776 2774 2772 2770 2768 2766 2764 2762 2760 2758 2757 2756 2754 2753 2752 2751 2751 2749 2748 2747 2746 2745 2743 2742 2741 2739 2738 2736 2735 2733 2732 2730 2729 2727 2726 2725 2725 2726 2726 2726 2727 2728 2729 2729 2729 2729 2730 2730 2729 2730 2731 2732 2734
2785 2783 2782 2781 2780 2779 2777 2776 2774 2772 2769 2767 2765 2763 2761 2759 2758 2756 2753 2752 2750 2749 2747 2746 2745 2744 2744 2742 2741 2740 2739 2738 2736 2735 2734 2733 2731 2730 2728 2726 2725 2723 2721 2720 2719 2718 2717 2717 2718 2718 2718 2719 2719 2719 2719 2720 2720 2721 2721 2721 2722 2723 2725
2778 2776 2775 2773 2772 2771 2770 2769 2767 2765 2763 2760 2758 2757 2755 2753 2752 2750 2747 2745 2744 2742 2741 2740 2739 2738 2737 2735 2734 2732 2731 2730 2729 2727 2726 2725 2724 2723 2721 2720 2718 2716 2714 2713 2712 2711 2710 2710 2710 2709 2709 2710 2709 2709 2710 2711 2712 2712 2713 2714 2714 2714 2716
2771 2769 2767 2766 2764 2763 2762 2761 2760 2758 2756 2754 2753 2751 2750 2748 2746 2744 2742 2740 2738 2737 2736 2734 2733 2732 2731 2729 2727 2726 2724 2723 2721 2720 2719 2718 2717 2715 2714 2713 2711 2709 2708 2706 2705 2704 2703 2702 2702 2701 2701 2701 2701 2702 2703 2703 2704 2704 2705 2707 2707 2707 2708
2765 2763 2761 2759 2757 2756 2755 2755 2753 2751 2750 2748 2747 2746 2744 2742 2740 2738 2736 2735 2733 2732 2731 2730 2728 2727 2725 2724 2722 2720 2718 2717 2715 2714 2712 2711 2710 2708 2707 2706 2704 2703 2701 2700 2698 2697 2695 2695 2694 2694 2694 2694 2694 2695 2695 2696 2696 2697 2698 2700 2700 2699 2701
2758 2757 2754 2753 2751 2749 2748 2748 2747 2745 2743 2742 2741 2739 2737 2736 2734 2732 2731 2729 2728 2726 2725 2724 2723 2722 2720 2718 2716 2715 2713 2711 2709 2708 2707 2705 2703 2702 2700 2699 2698 2696 2695 2693 2692 2690 2689 2688 2687 2687 2687 2687 2687 2688 2689 2689 2689 2690 2692 2693 2693 2693 2695
2751 2750 2748 2746 2745 2743 2741 2740 2740 2738 2737 2736 2734 2732 2730 2729 2727 2726 2725 2723 2722 2720 2719 2718 2717 2716 2714 2712 2710 2709 2707 2705 2703 2702 2701 2700 2698 2696 2694 2693 2692 2690 2689 2687 2686 2684 2683 2682 2682 2681 2681 2681 2681 2682 2683 2683 2684 2685 2685 2686 2687 2688 2690
2746 2744 2741 2739 2738 2736 2735 2734 2733 2731 2730 2729 2728 2726 2724 2723 2721 2720 2719 2717 2715 2714 2713 2712 2711 2709 2708 2706 2704 2702 2701 2699 2697 2696 2695 2694 2693 2691 2689 2687 2686 2685 2683 2682 2680 2679 2678 2677 2677 2676 2676 2676 2676 2676 2677 2678 2678 2679 2680 2681 2682 2683 2684
2740 2738 2735 2733 2731 2729 2728 2728 2727 2726 2724 2723 2722 2720 2719 2717 2716 2715 2714 2712 2710 2708 2707 2706 2705 2703 2702 2700 2698 2696 2695 2693 2692 2690 2689 2688 2687 2685 2684 2682 2681 2680 2678 2677 2675 2674 2673 2673 2672 2672 2671 2671 2671 2671 2672 2673 2673 2674 2675 2676 2677 2678 2679
2735 2732 2730 2728 2726 2724 2723 2722 2721 2720 2719 2718 2716 2715 2713 2712 2711 2710 2708 2706 2704 2703 2702 2701 2699 2698 2696 2694 2693 2691 2689 2688 2686 2685 2683 2682 2681 2680 2679 2678 2676 2675 2674 2672 2671 2670 2669 2668 2668 2668 2667 2667 2667 2667 2668 2668 2669 2671 2671 2672 2672 2673 2674
2730 2727 2725 2723 2722 2720 2718 2717 2716 2715 2714 2713 2711 2709 2708 2707 2706 2705 2703 2701 2699 2698 2697 2695 2694 2692 2691 2689 2687 2686 2684 2682 2681 2679 2678 2676 2675 2674 2674 2673 2672 2671 2669 2668 2667 2666 2665 2664 2664 2664 2664 2664 2664 2664 2664 2665 2666 2667 2668 2668 2669 2670 2671
2727 2724 2721 2719 2717 2716 2714 2713 2712 2711 2709 2708 2706 2704 2703 2702 2701 2700 2698 2697 2695 2693 2691 2690 2689 2687 2685 2684 2682 2680 2679 2677 2676 2674 2673 2671 2670 2669 2669 2668 2667 2666 2665 2664 2663 2662 2661 2661 2660 2660 2660 2660 2660 2660 2661 2661 2662 2663 2664 2664 2665 2665 2666
2721 2720 2718 2716 2713 2711 2709 2708 2708 2706 2704 2703 2701 2699 2698 2697 2696 2695 2693 2692 2691 2689 2687 2686 2684 2682 2680 2679 2677 2676 2674 2672 2671 2669 2668 2667 2666 2665 2664 2663 2662 2661 2661 2660 2659 2659 2658 2657 2657 2657 2656 2656 2656 2657 2657 2657 2658 2659 2659 2660 2661 2661 2662
Wind_Speed
26 26 27 28 28 28 29 29 30 31 32 33 34 35 36 36 37 38 38 39 39 39 39 39 39 39 39 40 41 41 43 44 45 47 48 50 51 52 53 54 55 56 54 52 53 54 54 54 53 52 50 49 48 47 46 47 47 47 49 50 50 51 52
29 30 31 31 32 32 33 34 34 35 35 36 37 37 38 39 39 40 41 41 42 41 42 42 42 43 42 42 43 44 44 45 46 47 47 48 50 50 51 53 54 54 54 53 52 53 54 54 54 53 52 50 50 48 47 48 48 49 50 51 52 53 54
33 34 34 35 35 35 36 37 38 38 39 39 40 40 41 41 42 43 44 44 45 45 46 46 47 47 47 47 47 48 48 48 48 49 49 49 50 51 51 52 52 53 53 53 53 53 54 54 55 54 53 53 52 51 50 50 50 50 51 52 53 55 55
37 38 38 38 38 38 39 40 40 41 41 42 43 44 44 45 46 47 47 48 49 50 50 51 52 52 52 52 52 52 52 52 51 52 52 52 53 53 53 53 54 54 54 56 56 55 55 55 56 55 55 55 55 54 53 52 52 52 53 53 54 56 56
41 41 42 41 41 41 41 42 42 43 44 45 46 47 48 49 50 51 51 52 53 54 55 55 56 56 56 56 56 56 56 55 55 55 55 56 56 57 57 57 58 58 58 59 59 58 57 57 58 57 57 57 57 56 56 55 54 53 54 54 55 56 56
43 44 44 44 44 44 44 45 46 47 48 49 50 51 52 53 53 54 55 55 56 57 57 58 58 58 59 59 59 59 59 59 58 58 59 59 60 60 61 61 61 61 62 62 62 61 60 60 60 59 59 58 58 58 58 57 57 56 55 55 55 55 55
44 45 46 46 47 47 48 49 51 52 53 53 54 54 54 55 55 56 57 57 58 58 59 59 60 60 60 60 61 61 62 62 62 62 63 63 63 64 64 65 64 65 65 65 64 63 63 63 62 61 61 60 60 61 60 60 60 58 57 56 55 55 55
45 46 47 47 48 50 51 52 54 55 55 56 56 56 57 57 57 58 58 59 60 60 61 62 62 63 64 64 64 65 66 66 67 67 67 67 67 67 67 67 67 68 68 68 67 66 65 65 65 64 63 62 63 63 63 62 62 61 59 58 57 56 55
48 49 50 50 51 52 53 54 55 56 56 57 58 59 59 60 61 61 62 62 62 63 64 64 65 66 67 67 68 68 69 69 69 70 70 69 69 69 69 69 69 70 70 70 70 69 68 68 68 67 66 66 65 65 64 63 64 63 62 61 59 57 56
50 51 52 53 54 54 55 56 56 57 58 59 60 61 62 62 63 63 64 64 64 64 65 65 66 66 67 67 68 68 69 69 69 69 69 69 69 69 69 70 70 70 71 71 72 71 71 71 71 69 69 69 68 67 67 67 67 66 64 63 63 60 58
52 53 53 54 55 55 56 58 58 59 60 60 61 62 62 63 63 63 63 64 64 64 64 64 64 65 65 66 66 67 67 67 67 68 68 68 68 68 68 69 70 70 70 71 72 72 72 73 73 71 70 70 70 70 70 69 69 68 67 66 66 64 62
53 54 55 56 57 58 59 59 60 60 60 60 60 60 61 61 62 62 61 61 62 62 62 63 63 63 63 64 64 65 66 66 66 67 67 67 67 67 67 68 68 69 69 69 70 71 72 73 73 72 71 71 70 70 70 69 69 69 69 68 69 68 67
55 56 57 58 59 59 59 60 60 59 59 58 58 58 58 59 59 59 59 58 59 59 60 60 61 61 61 62 63 63 64 65 65 65 66 66 67 67 67 67 66 67 67 68 69 70 71 71 71 72 71 70 70 70 70 70 70 69 69 69 69 69 68
57 58 58 59 59 59 59 58 58 58 57 57 56 56 57 57 57 57 56 56 57 57 58 58 59 60 60 61 62 62 63 63 63 64 64 65 65 66 66 66 66 65 65 66 67 70 71 70 69 70 70 69 69 70 71 71 71 71 70 70 69 68 68
58 58 58 58 58 58 57 56 56 56 56 55 55 55 56 55 55 55 55 55 55 56 56 57 57 58 59 59 60 61 61 62 63 63 64 64 64 64 64 64 64 64 64 64 65 67 69 68 68 68 68 68 69 70 70 70 71 71 71 71 71 70 71
58 58 57 56 56 56 55 54 54 54 54 54 54 54 55 54 54 54 54 54 54 54 55 55 56 56 57 57 58 58 59 60 61 62 63 63 64 64 64 64 64 63 63 63 63 64 65 66 66 67 67 67 68 69 69 69 69 70 71 72 72 72 71
56 56 55 55 55 55 54 53 53 53 53 53 53 54 54 54 53 53 53 53 53 53 54 54 54 55 56 56 57 57 58 58 60 61 61 62 63 63 64 63 63 63 63 62 62 62 62 63 64 65 66 67 67 68 68 69 70 70 70 71 73 73 72
54 53 53 53 53 53 53 52 52 52 52 52 52 53 54 54 54 53 53 53 52 52 52 53 53 54 55 55 56 56 56 57 58 59 60 61 61 62 62 62 62 63 63 62 62 61 61 61 62 63 64 65 66 67 68 69 70 69 68 70 71 72 72
52 51 50 51 51 51 51 51 51 52 52 52 52 53 54 54 54 54 53 53 53 52 52 52 52 53 53 54 54 54 54 54 55 56 56 57 59 60 60 60 60 60 61 61 61 61 60 60 60 60 62 63 64 65 66 68 70 68 67 69 70 69 69
50 50 50 49 49 50 50 51 51 51 52 52 52 53 53 54 54 54 54 54 53 53 52 51 51 51 51 51 51 51 51 51 51 52 52 53 55 56 56 56 56 57 58 59 59 59 59 59 58 58 59 61 62 63 63 66 68 68 68 68 68 67 68
50 50 50 49 49 49 49 50 51 51 51 51 51 52 53 53 53 54 54 53 53 52 51 50 50 49 49 49 49 48 48 48 48 48 49 49 50 51 51 52 53 54 55 55 56 57 57 58 58 57 58 58 59 60 61 62 64 66 67 67 66 65 66
50 50 50 49 49 49 49 49 50 50 50 50 50 51 51 52 52 52 52 52 51 50 49 48 48 47 47 46 46 46 45 46 46 46 46 47 47 48 48 49 50 51 51 52 53 53 54 55 55 56 56 56 56 57 57 57 59 62 64 65 64 63 63
50 50 50 49 48 48 48 48 48 48 48 48 48 48 49 49 49 49 49 49 48 47 47 46 46 46 45 45 44 44 44 45 45 45 45 45 45 46 46 47 48 48 49 49 50 51 52 52 53 53 53 53 53 53 52 52 54 56 59 61 62 62 62
50 50 49 48 47 46 45 45 46 45 45 45 46 46 46 46 46 45 46 46 46 46 46 45 45 44 44 44 44 44 44 44 45 45 45 44 45 45 45 45 46 46 47 48 48 49 50 50 50 50 50 50 49 49 48 49 50 53 55 58 59 60 60
49 49 48 47 46 45 44 43 43 43 43 44 44 44 43 42 42 43 44 44 44 45 44 45 44 44 43 43 43 43 44 44 44 44 44 44 44 44 44 44 45 45 45 46 47 47 48 48 47 47 47 46 46 46 47 48 49 51 53 56 57 58 58
49 48 47 47 46 45 44 43 42 42 42 42 41 41 40 40 41 41 42 43 43 43 43 43 43 43 43 42 42 43 44 44 44 44 44 44 43 43 42 42 43 43 44 45 45 46 46 46 45 45 46 45 45 46 46 47 48 49 51 53 54 56 56
48 47 47 46 46 45 44 43 41 41 40 39 39 38 38 39 39 40 40 41 41 41 41 41 42 42 42 42 42 43 44 44 45 45 44 44 43 42 42 41 41 41 42 43 43 43 44 43 43 44 44 44 45 45 45 45 46 48 49 49 50 52 54
46 46 45 46 45 44 43 42 40 40 38 38 37 37 37 37 37 37 38 38 39 39 39 39 39 39 40 40 41 42 43 44 44 44 43 43 42 42 41 40 39 40 40 40 40 40 40 40 40 41 42 42 42 42 42 42 43 45 46 46 46 48 50
45 44 44 44 44 43 43 41 39 38 37 36 36 36 36 36 35 36 36 36 37 37 37 37 37 37 38 39 40 41 42 42 42 42 41 41 41 41 40 39 38 38 38 38 38 37 37 36 37 38 38 38 38 38 38 39 41 42 42 42 43 45 46
44 43 43 43 42 42 42 41 39 37 36 36 36 35 35 35 35 36 36 35 36 36 36 36 37 37 38 39 39 40 40 40 40 39 39 38 38 39 38 38 37 37 36 36 35 34 34 34 35 36 36 36 36 36 36 37 38 38 39 40 41 41 42
42 42 42 42 42 41 40 39 38 37 37 36 35 34 35 35 35 36 35 36 36 36 36 36 37 37 37 38 38 38 38 38 38 38 37 37 37 37 37 36 36 35 34 34 33 32 32 33 35 36 36 35 35 36 36 36 36 37 37 38 38 38 38
40 40 40 41 41 40 39 38 37 37 37 35 34 34 35 36 35 35 35 35 36 36 36 36 36 36 36 36 36 36 36 36 36 36 36 36 36 35 35 34 34 33 32 32 32 31 30 32 35 36 36 37 37 38 37 37 36 36 36 36 37 37 37
38 38 39 39 39 38 38 38 38 37 35 34 34 35 35 35 35 34 34 35 35 36 35 35 35 35 35 35 35 34 34 34 35 35 35 35 35 35 34 33 32 31 30 30 30 30 29 30 33 36 37 38 39 39 39 38 36 35 34 35 35 36 35
35 36 37 37 36 36 37 37 36 35 34 34 34 35 35 34 34 33 33 34 34 34 34 34 34 33 33 33 33 32 32 33 33 33 34 34 34 34 33 32 31 30 29 28 28 28 28 28 29 33 36 38 39 40 39 38 35 33 32 32 33 33 33
31 32 34 34 34 35 37 36 34 33 33 33 34 34 34 34 33 32 32 32 32 33 33 33 33 32 32 31 31 31 31 32 32 32 32 33 33 33 32 31 30 29 28 27 26 26 27 26 26 28 31 34 36 37 36 34 31 30 29 29 30 30 31
30 29 29 31 32 35 35 33 32 32 32 33 33 33 33 33 32 32 31 31 30 30 31 31 31 31 31 30 30 30 30 31 31 31 31 32 32 32 31 30 29 29 28 27 26 25 25 25 25 25 25 27 28 28 28 27 25 25 25 25 26 27 28
Wind_Direction
269 270 272 274 276 278 279 281 281 281 281 280 280 281 282 283 284 284 285 285 285 285 285 285 284 283 282 280 279 278 277 276 275 274 274 274 274 274 274 275 275 275 276 277 277 277 277 277 276 275 273 271 269 266 263 262 262 261 259 259 259 260 261
271 272 273 274 276 278 279 281 282 282 283 283 283 283 284 284 285 285 286 286 286 287 287 287 286 285 284 282 281 281 279 279 278 277 276 276 275 275 275 275 275 274 275 276 276 276 276 276 275 275 274 273 271 269 266 263 262 261 261 260 259 259 260
272 273 274 275 276 277 279 280 281 282 282 283 283 284 284 284 285 284 285 285 285 286 286 286 285 284 283 281 280 279 279 278 278 278 278 277 276 276 275 274 274 274 274 275 276 275 275 275 275 275 275 273 271 269 267 265 264 262 262 261 260 259 259
273 274 275 275 275 277 279 280 281 282 282 283 283 283 283 283 284 283 283 284 284 284 284 284 284 284 282 280 279 278 278 277 278 278 278 278 278 277 276 275 274 274 274 275 275 275 274 274 274 274 274 273 271 270 268 266 265 263 262 262 261 260 260
275 276 276 275 275 276 277 278 279 280 281 282 282 283 283 283 283 283 282 282 282 282 282 282 282 282 281 279 278 277 276 276 276 276 277 277 277 277 276 276 275 275 274 273 274 274 273 272 272 272 272 272 271 270 269 268 266 264 263 262 262 262 262
277 277 277 276 276 277 278 279 279 280 280 281 281 281 281 281 281 281 281 281 281 281 281 281 280 279 278 277 276 275 274 274 274 274 275 275 275 274 274 273 273 273 273 272 272 272 271 270 270 270 270 270 270 269 269 268 267 265 264 263 263 263 263
276 276 276 276 277 278 278 279 280 281 281 281 281 280 279 279 279 279 279 279 279 279 279 279 278 278 277 276 275 274 273 273 273 273 273 273 273 272 271 271 271 271 271 271 271 270 270 269 269 268 268 268 268 268 267 267 267 267 267 266 265 264 263
275 276 276 276 277 277 278 279 280 281 281 281 281 281 280 280 279 279 279 278 278 278 277 277 276 275 275 274 273 273 272 272 272 272 272 272 272 271 270 269 269 268 268 269 268 268 268 268 267 267 267 267 266 266 267 268 269 268 268 267 266 265 264
276 277 278 279 280 281 281 282 282 282 282 281 281 281 281 281 281 280 280 279 278 277 276 275 275 274 274 273 273 272 272 272 272 272 272 272 271 270 270 269 268 268 268 268 267 267 267 266 265 265 266 265 266 266 267 267 268 268 267 267 266 265 264
280 280 281 282 283 283 284 283 283 283 282 282 281 281 281 281 280 280 280 279 278 278 277 276 275 275 275 274 274 274 273 273 273 273 273 272 272 271 270 270 269 268 268 268 267 267 266 266 265 265 265 264 264 264 264 265 265 266 266 266 265 264 264
283 283 283 284 284 284 284 284 284 284 284 283 283 282 281 281 280 280 279 279 278 278 277 277 276 276 275 275 275 275 275 275 274 274 274 273 273 272 271 271 270 269 268 268 267 267 266 266 265 265 265 264 264 263 262 262 262 262 262 262 263 264 264
286 286 285 285 285 285 285 285 285 284 284 284 283 283 282 282 281 281 280 279 279 278 278 277 276 275 275 275 275 274 274 274 274 274 274 273 273 273 272 272 271 270 269 268 268 267 266 265 265 264 264 264 264 264 264 263 262 262 261 261 261 263 265
289 289 289 288 288 287 287 286 286 285 285 285 284 284 283 282 282 282 281 280 279 279 278 277 277 276 275 275 274 274 273 273 273 273 273 273 273 273 273 272 272 272 271 270 269 268 267 267 266 265 264 263 263 263 263 263 263 263 263 262 262 262 263
292 292 291 291 290 289 289 288 287 287 286 286 285 284 284 284 283 282 282 281 280 280 279 278 278 277 277 276 276 275 274 274 273 273 272 272 272 272 272 272 272 272 271 271 270 270 270 269 268 266 265 264 263 262 262 262 262 262 263 263 263 262 261
292 292 291 291 290 290 289 289 288 287 287 286 286 285 285 285 284 284 283 283 282 281 280 280 279 278 278 277 277 277 276 276 275 274 273 273 272 272 272 271 271 271 270 270 270 270 270 270 269 268 267 265 264 263 262 261 261 261 261 261 261 260 260
292 291 291 291 290 290 289 289 289 288 288 288 287 287 287 286 286 285 285 284 283 282 282 281 281 280 279 279 278 278 277 277 276 276 275 274 273 272 271 271 271 270 269 269 268 268 268 269 269 268 267 266 265 264 263 261 260 259 259 259 259 259 259
291 291 291 291 290 290 290 290 290 289 289 289 289 288 288 288 287 286 285 285 284 283 283 282 282 281 281 280 279 279 278 277 276 276 275 275 274 273 272 271 271 270 269 269 268 268 267 267 267 266 266 266 265 264 263 262 260 259 259 259 259 259 259
290 290 290 290 290 290 290 290 290 290 290 290 289 289 289 288 288 287 286 286 285 285 284 284 283 282 281 281 280 279 278 277 277 276 276 275 274 274 273 272 272 271 270 269 268 267 266 265 264 264 264 263 263 263 263 262 261 260 260 260 259 259 260
292 292 291 291 291 291 291 291 291 291 291 291 290 290 290 289 289 289 288 288 287 287 286 286 285 284 283 282 281 281 280 279 279 278 277 276 276 275 274 274 273 272 271 269 268 267 266 265 264 263 262 261 261 260 260 261 262 261 260 259 259 259 260
294 293 293 292 292 292 292 292 292 292 292 292 292 292 292 292 291 291 290 290 289 288 288 287 287 286 286 285 285 284 283 282 282 281 279 279 278 277 276 276 275 273 272 271 270 269 267 266 264 262 261 261 260 259 258 259 261 261 261 260 260 260 260
294 294 294 293 293 293 293 293 293 293 293 294 294 294 293 293 292 292 291 290 289 289 288 287 287 287 286 286 286 285 284 284 283 282 281 281 280 280 279 278 277 276 275 274 273 271 269 268 266 264 262 261 260 260 259 258 259 260 261 262 261 261 261
294 294 293 293 293 294 294 294 294 294 294 294 294 293 293 292 291 291 290 290 290 289 289 288 287 286 285 285 284 284 284 283 283 282 282 282 282 282 281 280 280 279 278 277 276 274 272 270 268 266 264 262 261 260 259 259 259 259 260 261 261 261 260
293 293 292 293 293 294 294 294 294 294 294 293 292 292 291 291 291 291 291 292 291 291 290 288 287 286 286 285 285 284 284 284 284 283 283 283 282 282 282 281 281 281 280 279 278 276 275 273 271 269 267 265 263 261 260 259 259 259 259 259 259 259 259
293 293 293 293 294 294 294 294 294 294 293 292 292 291 291 291 291 291 292 291 291 290 290 288 288 287 287 287 287 286 285 285 284 284 284 284 284 283 283 283 282 282 281 280 279 278 276 275 273 272 270 267 265 262 260 258 257 257 257 257 257 257 257
293 293 294 294 294 294 294 294 294 293 293 292 292 292 292 292 292 291 291 290 290 290 289 289 289 289 289 289 288 288 287 287 287 287 286 285 285 284 284 284 283 283 282 281 280 279 278 276 274 272 270 267 263 261 258 257 256 255 256 256 257 257 257
294 295 295 296 296 296 295 295 295 294 293 292 292 293 293 292 292 291 290 290 290 289 289 290 290 290 291 291 290 290 290 290 290 290 289 288 287 286 286 285 285 284 283 283 282 281 279 277 275 271 268 264 261 259 257 256 255 255 255 256 257 258 257
295 296 297 296 296 296 296 295 295 294 293 292 292 292 292 291 290 289 288 288 288 289 289 290 290 291 291 291 291 291 291 291 291 290 290 289 289 289 288 287 286 286 286 286 285 283 281 278 275 271 268 264 261 259 257 256 255 255 254 255 256 257 257
295 296 296 296 296 296 295 294 294 293 292 292 292 292 291 290 288 287 287 287 288 288 288 289 289 289 289 289 289 289 289 290 290 289 289 289 289 290 289 289 289 289 290 290 288 286 283 279 275 272 268 264 261 258 257 256 255 254 254 254 254 255 256
295 295 295 295 295 295 294 294 293 293 293 293 294 293 292 291 290 289 289 289 290 289 290 290 290 289 288 288 288 288 288 288 288 288 288 289 290 290 291 291 291 292 293 293 291 289 285 280 276 271 266 261 258 256 255 254 255 255 255 254 254 254 254
295 295 294 294 294 294 294 294 295 295 295 296 296 295 294 293 293 293 293 293 293 293 293 293 292 291 290 289 289 289 288 288 287 287 287 288 289 290 290 291 292 294 295 295 293 290 287 281 275 269 263 258 255 253 253 254 254 255 255 255 254 254 254
294 294 294 294 295 295 295 296 297 297 298 298 298 297 296 295 295 296 296 297 296 296 296 295 294 294 293 291 290 290 289 289 288 288 288 288 289 289 289 290 292 294 296 296 294 291 288 282 275 268 260 255 252 251 251 252 253 254 254 254 254 253 252
293 293 294 294 295 295 295 296 297 298 299 299 298 297 296 296 296 297 297 297 297 297 298 298 297 296 295 293 292 291 291 290 290 289 289 289 288 288 288 288 290 293 295 296 294 292 289 283 277 269 260 254 251 251 251 252 253 254 254 253 253 252 251
293 293 293 293 293 294 294 295 297 298 298 298 298 297 296 296 297 298 298 297 297 298 299 300 299 298 297 295 294 293 292 291 290 290 289 288 288 287 287 287 288 290 293 295 294 292 289 285 279 272 264 258 255 254 254 255 255 256 256 255 254 253 252
291 292 291 291 291 292 293 294 296 297 298 297 297 297 297 297 297 297 297 297 298 299 300 300 300 299 298 297 296 295 294 292 291 290 289 288 287 287 287 286 286 287 289 292 294 293 291 288 282 275 269 264 262 262 263 263 263 262 261 259 257 255 253
289 287 287 288 289 290 291 293 295 296 297 296 296 297 297 297 297 296 296 297 298 299 300 301 302 301 300 299 298 297 296 295 293 291 289 289 288 287 287 286 285 284 285 287 290 292 292 290 286 281 275 271 270 270 271 271 268 264 261 258 255 252 251
289 285 284 287 289 290 290 292 294 296 296 296 296 297 297 297 297 296 296 297 298 299 300 302 302 302 301 301 300 300 299 297 296 293 291 290 289 288 287 286 285 284 283 283 285 287 288 288 287 285 281 278 275 275 275 273 268 263 259 256 252 250 248